Regional Weather Roundup
Issued by NWS

Home | Current Version | Previous Version | Graphics & Text | Print | Product List | Glossary Off
Versions: 1 2 3 4 5 6 7 8 9 10 11 12 13 14 15 16 17 18 19 20 21 22 23 24 25 26 27 28 29 30 31 32 33 34 35 36 37 38 39 40 41 42 43 44 45 46 47 48 49 50

000
ASUS43 KMKX 292321
RWRWI

WISCONSIN REGIONAL WEATHER ROUNDUP
NATIONAL WEATHER SERVICE MILWAUKEE/SULLIVAN WI
600 PM CDT SAT AUG 29 2015

NOTE: "FAIR" INDICATES FEW OR NO CLOUDS BELOW 12,000 FEET WITH NO
SIGNIFICANT WEATHER AND/OR OBSTRUCTIONS TO VISIBILITY.

WIZ001-002-006>008-014>016-023>028-300000-
NORTHWEST WISCONSIN

CITY           SKY/WX    TMP DP  RH WIND       PRES   REMARKS
SUPERIOR ARPT  PTSUNNY   75  66  73 W6        29.98S
ASHLAND        MOSUNNY   75  66  73 S8        29.99F
HAYWARD        CLOUDY    73  63  70 S6        30.03S
SIREN          PTSUNNY   73  62  67 SW6       30.03S
CUMBERLAND     PTSUNNY   72  61  68 S5        30.04F
RICE LAKE      PTSUNNY   72  62  69 SW6       30.05S
CHETEK         PTSUNNY  N/A N/A N/A CALM      30.04S
LADYSMITH      MOSUNNY   72  62  70 S7        30.06S
EAU CLAIRE     SUNNY     70  61  73 CALM      30.04S
MENOMONIE      MOSUNNY   71  62  74 CALM      30.05R
NEW RICHMOND   PTSUNNY   72  62  69 SW5       30.04S
OSCEOLA        MOSUNNY   72  60  65 S5        30.05F
$$

WIZ003>005-009-010-017-018-300000-
NORTH CENTRAL WISCONSIN

CITY           SKY/WX    TMP DP  RH WIND       PRES   REMARKS
MANITOWISH WTR MOSUNNY   73  62  70 W5        30.03S
ARBOR VITAE    CLOUDY    74  62  65 S5        30.04R
WOODRUFF       CLOUDY    74  62  65 S5        30.04R
RHINELANDER    SUNNY     73  60  63 SW5       30.05F
EAGLE RIVER    SUNNY     73  56  55 SW6       30.03S
LAND O LAKES   SUNNY     75  59  56 CALM      30.03F
PHILLIPS       PTSUNNY   72  62  70 SW5       30.03F
TOMAHAWK       SUNNY     71  61  71 CALM      30.06R
MEDFORD        MOSUNNY   68  62  80 SW5       30.06R
MERRILL        SUNNY     69  62  78 SW3       30.06S
$$

WIZ029-030-035-036-043>047-300000-
CENTRAL WISCONSIN

CITY           SKY/WX    TMP DP  RH WIND       PRES   REMARKS
WAUSAU         CLOUDY    68  59  73 S3        30.04F
MOSINEE        CLOUDY    64  61  88 SE5       30.07S
MARSHFIELD     CLOUDY    67  58  72 SE3       30.06S
STEVENS POINT  CLOUDY    63  58  85 CALM      30.07S
WAUPACA        CLOUDY    69  63  80 NW5       30.05F
WAUTOMA        CLOUDY    69  62  78 N5        30.05S
WISC RAPIDS    NOT AVBL
CAMP DOUGLAS   CLOUDY    69  69 100 SE3       30.04F
$$

WIZ011>013-019>022-031-037>040-048>050-300000-
NORTHEAST WISCONSIN

CITY           SKY/WX    TMP DP  RH WIND       PRES   REMARKS
ANTIGO         SUNNY     68  59  72 S6        30.06S
SHAWANO        CLOUDY    70  62  76 CALM      30.05F
OCONTO         SUNNY     69  62  78 CALM      30.04S
STURGEON BAY   CLOUDY    64  61  88 E3        30.07S
GREEN BAY      CLOUDY    70  63  78 NE5       30.04S
MANITOWOC      SUNNY     65  61  87 MISG      30.05S
APPLETON       CLOUDY    70  59  68 VRB3      30.03F
CLINTONVILLE   CLOUDY    68  59  73 CALM      30.04F
OSHKOSH        CLOUDY    69  60  73 NE3       30.03F
$$

WIZ032>034-041-042-053>061-300000-
SOUTHWEST WISCONSIN

CITY           SKY/WX    TMP DP  RH WIND       PRES   REMARKS
LA CROSSE      CLOUDY    71  61  70 SE6       30.04S
SPARTA         CLOUDY    70  58  67 CALM      30.05F
VIROQUA          N/A     69  62  78 CALM      30.05F
BOSCOBEL       CLOUDY    72  63  73 CALM      30.03F
PRAIRIE DU CHI CLOUDY    70  60  72 E8        30.03S
PLATTEVILLE    CLOUDY    70  65  85 N8        30.03S
$$

WIZ056-057-062-063-064-067-068-300000-
SOUTH CENTRAL WISCONSIN

CITY           SKY/WX    TMP DP  RH WIND       PRES   REMARKS
REEDSBURG      CLOUDY    68  62  80 N5        30.04F
BARABOO/DELLS  CLOUDY    68  61  77 NE5       30.04F
LONE ROCK      CLOUDY    70  63  78 NE3       30.04S
MINERAL POINT  CLOUDY    70  63  78 N5        30.04F
MADISON        CLOUDY    68  62  81 NE5       30.03S
MIDDLETON      CLOUDY    68  65  91 CALM      30.04F
WATERTOWN      CLOUDY    66  66 100 E7        30.03S
MONROE         CLOUDY    66  63  88 N6        30.04R
JANESVILLE     CLOUDY    70  63  78 N6        30.01S
$$

WIZ051-052-058>065-066-070>072-300000-
SOUTHEAST WISCONSIN

CITY           SKY/WX    TMP DP  RH WIND       PRES   REMARKS
MILWAUKEE      DRZL/FOG  60  59  96 NE8       30.02S VSB 1/2
WAUKESHA       CLOUDY    63  61  94 NE6       30.05R FOG
MILWAUKEE/TIMM CLOUDY    63  61  94 NE5       30.04S FOG
RACINE         CLOUDY    62  60  93 NE6       30.03S FOG
BURLINGTON     CLOUDY    63  62  97 NE5       30.02S FOG
KENOSHA        CLOUDY    64  62  93 N5        30.02S FOG
FOND DU LAC    CLOUDY    68  62  81 CALM      30.04S
SHEBOYGAN      CLOUDY    65  61  87 SE3       30.05R
WEST BEND      CLOUDY    63  59  88 CALM      30.05R
JUNEAU         CLOUDY    67  62  83 NE3       30.05S
$$

LSZ147-162-300000-
LAKE SUPERIOR

STATION/POSITION TIME  TEMP    WIND        PRES    WAVE
                       AIR SEA DIR/SP/G            HT/PER
                 (UTC) (F)     (DEG/KT/KT) (MB)    (FT/S)
W MID LAKE BUOY  2250   59 55  230/  6/  6 1015.0S   1/ 4
DEVILS ISLAND    2300   65     240/  9/ 10 1015.1F
PORT WING        2200   68     270/  8/  9 1015.2F
SAXON HARBOR     2240   70      CALM  /  3 1015.2F
$$

LMZ867-665-643>646-300000-
LAKE MICHIGAN

STATION/POSITION TIME  TEMP    WIND        PRES    WAVE
                       AIR SEA DIR/SP/G            HT/PER
                 (UTC) (F)     (DEG/KT/KT) (MB)    (FT/S)
CHAMBERS ISLAND  2200   69     160/  4/  8 1017.3S
S GREEN BAY BUOY 2300   64 64  100/  4/  4 1018.6F
N MID LAKE BUOY  2250   65 65  210/  8/ 10 1017.1F   0
NORTHPORT PIER   2200   67     150/  4/  6 1016.9F
SISTER BAY       2219   71     250/  4/  4   N/A
ALGOMA LAKESHORE 2244             CALM       N/A
SHEBOYGAN LAKESH 2300   60     180/  1/  2 1017.8R
PORT WASHINGTON  2200   60      40/  4/  5 1017.9S
ATWATER BUOY     2300   53 48  350/  8/ 10 1018.3R
MILWAUKEE LAKESH 2200   58      20/ 10/ 10   N/A
S MID LAKE BUOY  2250   68 69  110/ 10/ 10 1015.9F   2/ 3
KENOSHA   LAKESH 2300   63     350/  6/  8 1016.3S
$$

TC  - TEMPERATURE IN CELSIUS
VSB - VISIBILITY IN STATUTE MILES
WCI - WIND CHILL INDEX
HX  - HEAT INDEX




USA.gov is the U.S. government's official web portal to all federal, state and local government web resources and services.